Find Starlink 5771

NORAD ID: 56023 Int'l Des: 2023-042 Owner: SPXS Country: US Constellation: starlink operational
LEOCIRCULAR

当前视图

正在加载3D地球...

About Starlink 5771

Starlink 5771 (NORAD 56023) is a starlink constellation satellite (v1.5) launched Mar 24, 2023 by SPXS of US. It operates in LEO, CIRCULAR orbit with a mass of 305.00 kg.

关于 Starlink 5771

正在加载描述...

即将过境

Passes for default location (London). Set your location on the main map for personalized predictions.

高度历史

Loading altitude history...

两行轨道根数

1 56023U 23042AP 26174.69927255 .00001202 00000-0 53199-4 0 9998
2 56023 43.0042 166.9320 0001430 281.7039 78.3652 15.27583353179242
Epoch: Jun 23, 2026 • Age: 15 hours

当前状态

高度 483.0 km
速度 7.63 km/s
星下点 19.22°N, 64.32°W
发射日期 Mar 24, 2023
运行时间 3.2 years
类型 internet

技术详情

分类 Payload
质量 305.00 kg
干质量 290.00 kg
总质量 305.00 kg
长度 0.20 m
直径 2.80 m
跨度 9.00 m
形状 Box + pan
制造商 SPXS
平台类型 Starlink
阶段状态 In Orbit
所有者/国家 SPXS/US

Most Searched